Terminal Aerodrome Forecast
Issued by NWS

Home | Current Version | Previous Version | Text Only | Print | Product List | Glossary On
Versions: 1 2 3 4 5 6 7 8 9 10 11 12 13 14 15 16 17 18 19 20 21 22 23 24 25 26 27 28 29 30 31 32 33 34 35 36 37 38 39 40 41 42 43 44 45 46 47 48 49 50
000
FTAK31 PANC 032331
TAFACD
TAF
PACD 032331Z 0400/0424 31017KT 6SM -SHRA BR SCT007 OVC015
      TEMPO 0400/0404 2SM -SHRA BR BKN007
     FM040600 31011KT P6SM BKN025
     FM042100 17011KT 5SM -SHSN OVC015=

USA.gov is the U.S. government's official web portal to all federal, state and local government web resources and services.